RH
34 32 45 37 49 57 53 45 30 24 16 20 19 21 22 26 34 54 54 53 67 76 82 86 87 76 71 77 96 91 92 91 92 98 97 93 87 86 84 81 80 90 96 98 83 89 98 98 99
34 32 42 49 58 60 55 35 34 23 21 19 19 18 21 45 44 56 73 67 70 75 85 88 84 73 71 84 94 94 97 96 95 95 96 85 83 83 82 79 79 88 96 99 100 95 93 91 88
38 47 52 56 59 60 53 30 24 18 19 18 19 18 21 39 46 51 59 76 74 79 89 88 79 73 74 94 92 89 91 96 96 94 92 86 81 79 83 82 80 80 92 98 97 85 83 79 82
51 49 48 51 56 43 36 29 24 20 17 18 20 24 32 38 42 45 66 74 71 84 87 84 77 72 69 81 78 74 81 90 89 96 88 80 76 82 85 79 81 81 75 86 83 82 81 76 68
45 59 60 57 47 36 32 27 20 19 18 20 19 23 41 44 43 45 61 67 78 86 79 79 74 70 63 64 68 74 83 85 83 85 78 76 81 90 81 63 71 80 81 86 86 88 75 72 78
52 57 69 66 50 32 28 23 20 19 19 18 18 20 41 45 45 45 52 64 71 82 78 77 72 72 61 64 68 77 80 83 82 79 85 88 89 95 83 66 63 76 88 89 88 81 70 62 64
54 59 63 49 48 38 30 22 22 22 20 20 16 20 40 42 46 44 49 55 69 76 76 75 75 74 66 67 69 70 73 82 83 83 87 89 92 91 88 78 69 73 70 65 60 59 59 64 64
53 60 56 52 43 39 26 18 19 23 23 16 17 23 54 47 45 44 47 64 72 77 75 76 80 76 73 74 74 73 67 79 82 85 88 82 83 91 84 82 69 68 65 64 64 64 65 66 67
38 65 72 58 48 37 26 27 19 18 19 18 17 27 41 42 46 45 50 75 85 85 76 76 80 78 78 80 81 80 73 65 76 81 80 77 77 89 90 80 65 64 63 66 66 65 67 71 69
56 72 62 42 38 34 32 35 30 22 21 20 19 32 34 42 45 48 53 57 73 88 82 72 75 78 79 84 85 85 83 72 63 73 73 72 80 82 88 81 69 61 63 64 66 69 73 71 74
51 70 50 44 37 33 39 38 35 29 29 24 23 23 35 38 45 52 51 51 53 64 80 78 76 76 76 85 83 88 87 82 64 58 65 69 82 88 80 83 74 63 64 66 72 73 70 60 59
62 49 46 42 40 39 42 43 45 39 31 32 27 24 27 36 44 48 51 50 52 55 58 75 79 76 78 78 84 83 84 81 76 59 51 67 75 85 81 66 58 63 63 72 74 72 63 57 45
52 48 42 40 41 36 35 44 46 46 40 36 34 31 26 31 31 31 35 40 49 54 54 58 71 73 75 80 80 78 77 74 75 72 62 61 73 72 69 61 66 68 70 74 67 62 60 49 42
46 44 46 44 45 43 42 42 40 40 36 37 33 33 33 34 33 30 29 28 35 48 53 52 61 67 72 74 74 70 73 71 70 71 64 61 62 58 56 62 68 71 72 68 62 60 51 48 44
48 60 58 53 50 49 40 50 50 41 40 42 38 35 31 32 28 32 27 28 27 28 47 52 52 61 66 71 70 70 73 68 71 66 64 61 60 58 58 66 65 68 65 63 57 49 46 42 34
59 60 79 51 45 48 46 57 43 38 41 41 38 35 36 31 29 23 22 24 26 26 29 51 54 54 61 65 71 72 77 73 70 65 63 61 60 62 65 63 66 66 67 59 50 46 38 32 26
60 75 77 63 39 44 50 53 41 35 37 40 38 37 33 30 28 24 21 20 21 22 24 38 53 54 56 62 68 74 78 78 74 67 63 62 61 64 64 65 68 63 53 48 46 39 34 26 22
67 75 56 54 42 39 46 53 44 38 35 38 39 43 39 32 28 24 22 20 20 19 21 24 36 52 53 59 63 66 70 80 73 68 62 64 62 69 67 69 65 57 50 47 44 34 25 23 19
60 53 54 48 38 38 48 50 41 36 35 32 31 37 32 32 31 26 23 21 19 19 19 21 28 42 57 72 82 86 80 73 85 74 60 66 65 68 71 71 65 53 50 45 38 28 26 21 17
62 58 58 48 37 41 47 46 38 35 34 31 30 32 30 27 29 28 22 21 23 21 20 22 27 28 47 59 66 81 83 79 84 82 67 68 69 73 76 72 61 50 47 40 29 27 27 26 16
56 58 58 55 48 45 53 52 45 36 34 30 28 26 26 26 28 28 27 21 20 23 23 23 25 31 31 39 70 76 87 85 91 90 74 74 74 79 80 68 54 47 45 35 28 27 27 27 24
64 51 50 54 62 76 53 83 63 39 29 28 35 33 29 27 28 27 25 23 18 18 19 21 24 27 32 33 41 67 82 94 91 89 81 81 83 84 76 62 48 38 34 28 27 26 27 26 26
60 51 57 59 68 76 70 77 60 48 31 26 20 27 34 32 28 26 29 23 19 18 17 18 22 24 30 35 38 50 82 88 87 89 84 82 75 73 60 58 49 41 37 32 28 24 23 25 23
51 55 58 64 76 97 76 71 58 39 29 20 23 22 25 24 23 24 22 23 24 23 22 19 21 28 28 35 45 59 75 85 93 86 79 69 68 64 61 53 44 41 36 32 26 24 21 21 21
56 70 93 90 95 92 60 76 64 40 31 27 26 22 20 20 20 21 36 39 31 28 26 25 24 22 31 35 55 68 72 79 88 83 79 76 65 61 48 49 40 40 36 31 28 22 21 20 22
72 71 92 94 98 82 56 78 48 29 29 25 22 18 21 20 23 21 38 39 35 31 29 28 27 25 26 51 67 72 75 86 89 85 79 76 62 55 45 42 38 38 34 29 26 22 22 21 22
74 87 65 82 74 92 69 46 30 25 28 24 25 23 26 27 27 30 38 40 36 32 33 33 30 28 37 73 76 80 82 83 86 87 79 71 57 46 41 40 40 38 35 30 23 23 22 25 28
62 59 86 94 88 92 71 54 41 34 38 35 36 35 32 31 32 37 47 44 37 32 38 36 32 31 64 80 77 80 81 82 83 82 69 61 47 42 39 40 40 34 32 28 28 26 27 26 29
74 84 71 76 88 92 96 65 37 34 34 34 36 37 35 33 33 36 52 47 42 34 38 42 39 50 80 79 77 77 79 80 78 72 62 50 41 39 40 40 40 34 29 28 26 26 27 26 29
66 73 65 91 76 94 94 83 40 35 36 42 39 46 44 46 35 42 56 51 49 49 46 49 65 79 74 72 73 76 74 69 67 59 48 42 40 39 36 31 32 29 28 26 30 38 27 29 32
Wind_Speed
10 9 13 4 3 4 4 8 3 8 3 1 3 5 3 2 2 2 6 17 26 32 27 24 24 22 18 15 17 17 16 16 15 15 15 13 12 11 10 10 10 10 11 14 15 14 13 16 14
9 8 3 1 4 1 5 9 11 8 4 5 6 4 4 2 3 7 12 26 29 32 28 26 24 20 17 18 18 16 16 15 14 14 15 11 12 11 11 10 10 11 11 14 16 17 18 14 10
7 1 2 4 4 6 5 5 5 3 6 4 4 2 1 2 3 10 22 29 26 31 28 27 23 19 18 19 18 17 16 15 14 15 17 14 12 12 11 11 11 11 12 13 14 13 12 10 9
2 3 3 2 9 7 10 11 3 3 3 5 4 5 4 3 16 14 32 31 26 29 27 27 22 19 18 19 18 17 16 16 16 17 15 14 15 14 12 11 11 12 12 12 10 10 9 8 6
3 2 2 4 11 6 8 8 7 4 4 3 2 2 5 5 21 30 34 29 30 31 28 26 21 19 19 19 18 17 17 17 16 17 18 17 15 14 12 11 12 13 13 12 10 9 7 7 7
1 2 2 10 9 5 10 13 5 4 3 1 2 3 3 22 23 27 31 30 30 33 29 26 21 19 19 19 17 17 17 19 19 20 18 17 16 13 11 11 12 13 12 11 10 9 8 7 6
4 2 6 5 5 6 13 11 6 8 5 3 1 2 1 2 20 23 25 27 31 33 31 27 24 20 19 19 18 18 19 22 20 19 16 16 15 12 10 10 10 11 10 10 9 9 8 8 7
4 3 4 6 9 7 9 3 6 8 8 3 4 3 4 5 21 19 20 29 31 31 29 29 26 22 22 21 19 18 19 21 21 19 17 14 14 14 11 10 10 9 8 8 8 9 9 9 9
1 2 5 8 7 6 12 5 6 2 5 3 2 6 9 19 19 17 19 29 27 28 26 28 27 24 23 21 20 18 18 19 20 19 17 15 13 15 13 10 10 9 9 9 8 8 8 8 9
5 5 6 4 7 7 6 4 6 1 3 1 2 5 13 21 19 16 14 17 25 28 29 28 28 26 24 22 21 20 18 18 19 20 18 16 13 16 16 13 10 9 9 9 9 8 6 4 4
4 5 5 8 10 3 4 6 5 4 1 5 5 7 6 9 16 16 18 24 27 29 29 31 31 28 26 24 24 22 20 18 17 18 19 19 17 18 15 13 11 10 10 10 10 8 7 6 7
7 4 13 12 11 5 3 5 6 1 4 8 5 3 4 8 9 14 19 25 29 29 32 31 33 32 30 29 27 25 22 18 17 17 19 20 16 23 18 12 12 11 11 12 9 10 8 6 5
6 8 12 10 8 6 3 4 4 8 9 10 10 5 4 6 6 10 17 23 31 32 34 33 34 34 34 32 29 25 23 21 20 19 18 22 22 21 17 15 14 13 12 13 15 12 9 7 6
1 4 4 6 7 5 7 5 2 3 10 10 10 12 5 8 11 11 11 13 19 32 36 36 36 36 37 36 33 28 28 25 22 23 22 22 24 18 19 19 18 15 17 18 14 11 9 7 5
1 4 7 6 6 5 7 7 7 11 8 10 12 12 12 10 16 15 22 19 17 17 34 39 38 37 37 39 33 30 30 28 27 23 25 25 22 20 22 22 21 20 17 15 12 11 10 8 4
4 3 2 4 10 8 9 11 8 12 9 16 19 18 14 13 11 25 29 26 26 21 17 38 38 36 36 34 32 31 31 32 30 27 26 26 23 24 24 25 22 18 16 15 14 11 8 5 3
1 4 6 7 10 6 12 4 14 12 9 13 16 14 16 18 14 26 31 36 35 30 25 28 37 39 38 38 36 35 27 30 31 29 26 24 26 26 27 26 22 19 18 16 14 12 8 4 1
5 4 3 5 4 4 6 9 8 10 9 9 9 9 11 17 20 29 31 34 35 37 34 30 31 40 40 40 38 37 35 26 32 32 27 28 31 29 27 24 22 22 20 17 15 12 8 4 0
4 3 5 4 5 4 8 9 12 9 12 17 13 11 14 14 10 17 20 29 35 33 36 35 31 34 39 36 31 30 34 38 30 35 32 34 35 33 29 26 25 24 21 18 14 12 9 6 2
9 7 4 6 3 5 10 18 16 19 15 19 20 14 16 15 11 11 21 24 22 29 33 33 33 34 38 36 39 27 34 32 34 34 36 37 38 34 30 27 28 26 22 19 17 14 9 3 4
2 2 2 4 6 4 9 10 8 8 16 21 21 18 15 17 13 11 11 22 24 22 25 23 21 27 39 37 35 27 31 28 30 31 36 38 37 34 30 28 28 25 23 21 18 15 11 7 4
1 5 1 3 4 4 4 6 6 8 8 5 10 13 17 15 8 10 10 14 26 26 24 25 26 22 31 38 36 36 34 23 23 39 38 39 37 34 31 29 27 25 21 20 18 14 12 9 8
3 5 5 4 3 5 3 2 7 6 4 5 3 9 11 11 12 12 10 18 28 23 19 25 32 31 26 38 37 38 30 30 33 37 38 37 36 33 31 29 27 24 20 18 17 15 12 10 9
6 3 3 3 3 2 7 5 4 2 4 2 4 9 5 6 5 4 4 5 6 6 12 17 18 31 33 33 41 41 40 37 35 34 37 37 34 32 29 27 25 23 21 19 17 14 11 9 8
4 5 2 1 1 6 2 4 7 10 13 8 9 7 6 6 5 4 7 5 6 7 11 15 17 20 27 33 38 41 42 44 43 41 38 36 33 32 30 28 25 23 21 19 16 14 11 9 8
5 5 4 5 3 4 4 6 6 7 10 9 6 2 5 2 1 3 6 3 4 8 15 17 23 21 22 31 36 39 40 39 38 38 36 33 33 33 32 29 25 23 22 18 15 13 11 8 6
3 3 4 1 3 3 5 7 9 8 7 7 8 6 8 9 6 6 4 3 3 10 18 21 24 26 22 31 37 36 37 37 36 35 33 31 31 34 33 29 26 22 20 17 14 12 9 7 5
5 4 3 2 0 4 5 5 7 4 7 7 8 7 8 8 9 4 1 1 6 13 20 28 24 27 26 34 36 34 33 32 31 32 33 32 30 31 31 28 25 21 16 15 11 10 8 6 4
5 2 2 3 4 4 2 6 5 4 4 1 4 7 8 9 8 9 7 4 4 11 19 24 20 22 29 29 30 34 32 30 31 32 32 31 31 33 30 28 25 22 18 13 11 8 5 4 3
4 5 5 4 5 3 2 8 8 13 4 7 17 16 14 10 17 7 7 2 5 9 18 17 13 24 28 31 33 32 31 31 33 32 31 34 33 31 30 28 24 19 16 14 10 7 5 2 3
Wind_Direction
273 282 312 310 54 71 243 253 238 301 28 6 348 68 166 237 117 195 137 164 151 156 157 153 150 149 146 144 145 145 142 140 140 139 134 126 118 114 103 105 110 109 103 91 110 114 122 120 117
269 295 312 92 121 160 261 245 269 252 186 57 28 12 25 91 86 137 110 153 153 157 156 157 156 152 149 145 146 145 143 144 145 143 137 136 123 122 118 115 117 122 116 108 111 119 126 123 117
249 250 85 159 180 201 233 205 320 216 99 100 18 4 341 98 82 142 149 151 150 157 159 159 157 153 149 148 149 149 146 144 141 146 144 137 131 128 125 121 122 125 128 119 115 117 114 114 109
194 32 344 162 231 237 228 260 332 255 54 87 113 293 36 313 152 151 150 151 148 158 164 160 159 156 153 153 151 152 149 149 148 144 143 142 138 133 127 122 122 126 134 132 123 116 113 107 100
222 74 199 220 250 252 253 257 275 241 141 170 108 300 109 36 136 143 150 153 150 159 163 162 160 158 155 154 152 151 150 151 152 156 147 143 141 136 128 123 119 121 122 126 124 119 125 128 124
315 134 158 225 243 245 263 255 208 229 146 91 124 81 190 143 143 149 152 158 159 163 164 163 163 161 160 156 152 152 153 152 148 148 149 147 148 144 133 126 126 124 123 124 127 131 131 128 124
170 116 214 219 236 258 252 269 187 192 174 242 206 123 194 82 151 154 152 159 163 164 164 167 167 168 166 161 156 154 156 156 157 157 161 163 167 161 145 136 136 135 135 136 137 135 131 122 111
147 163 215 222 244 266 269 278 245 164 208 159 122 207 164 174 157 158 155 157 160 166 171 171 170 171 170 167 164 160 160 165 167 169 170 171 173 186 167 152 150 149 146 143 139 133 125 114 101
65 208 210 221 228 251 300 14 317 181 121 97 50 135 166 150 158 164 145 151 155 167 171 176 176 176 176 174 171 168 166 171 176 181 183 177 173 177 179 168 164 159 153 145 136 127 126 124 108
171 207 229 221 233 263 276 20 312 157 146 173 71 59 145 152 159 161 168 164 160 170 175 179 183 182 182 182 179 177 175 176 182 188 188 183 178 186 183 181 173 169 157 145 131 130 129 118 171
215 204 229 266 264 315 296 314 349 357 314 222 189 165 224 168 171 176 186 188 186 180 182 185 183 183 184 188 188 184 185 184 186 192 188 185 182 185 181 180 189 182 168 152 144 146 146 123 129
243 260 239 263 272 265 244 312 329 120 267 303 245 253 147 255 186 185 193 199 192 187 186 194 187 185 186 192 193 190 189 192 190 190 190 190 193 192 187 188 187 182 179 175 176 169 155 154 138
218 245 253 246 279 268 242 246 241 288 298 305 316 350 273 251 219 218 208 211 203 194 194 189 194 190 191 195 195 194 198 197 194 196 186 192 189 183 199 193 187 187 195 196 173 173 167 165 166
313 236 271 296 310 309 271 247 200 285 281 310 303 290 235 263 254 250 244 249 215 206 197 195 192 195 196 196 196 197 198 196 193 200 198 196 190 199 193 196 190 189 179 174 181 180 178 188 198
88 353 339 313 291 269 346 271 221 246 249 263 271 276 274 232 248 253 256 252 253 215 207 198 195 192 197 198 199 198 202 200 191 198 197 193 206 201 198 187 188 186 175 178 179 176 189 191 200
44 24 279 239 246 233 173 253 237 240 236 246 249 250 264 264 241 244 255 258 255 254 212 203 198 195 191 194 198 197 207 200 196 194 199 203 199 199 200 192 187 184 180 181 185 187 189 189 183
161 234 216 295 244 205 184 234 239 242 249 246 247 237 243 251 254 250 247 248 251 252 249 209 203 199 198 197 197 193 190 202 199 196 199 199 200 203 194 194 192 185 183 185 191 185 192 184 197
196 223 231 241 284 224 237 260 270 279 264 246 245 239 238 239 241 238 239 242 243 245 248 245 210 206 202 202 205 204 205 197 202 199 200 201 200 197 197 197 192 188 188 191 187 183 173 162 235
320 265 245 253 281 258 240 251 260 249 263 268 255 245 249 243 243 247 240 239 236 236 242 235 223 209 199 186 186 192 195 201 204 204 201 201 200 206 207 199 191 191 193 190 185 172 167 144 135
265 264 276 295 343 358 307 291 273 258 245 244 244 245 244 247 250 251 252 256 247 234 236 238 228 213 200 198 198 194 198 201 205 206 198 200 200 202 203 198 191 192 188 184 182 181 170 140 107
261 257 283 267 335 352 341 284 256 273 239 244 246 241 240 235 233 240 242 246 255 251 239 237 231 225 204 197 191 184 187 191 195 195 192 193 196 197 195 196 192 191 193 184 183 184 185 169 120
247 13 48 35 35 261 65 291 292 269 286 233 242 231 233 232 225 225 230 234 243 250 253 251 241 228 221 209 198 185 180 173 188 188 181 186 192 190 190 192 190 187 188 184 180 178 184 185 161
200 76 61 41 29 7 282 201 279 257 263 296 279 265 229 224 225 228 218 225 239 238 243 254 247 237 220 215 211 198 180 182 184 177 173 174 179 181 184 187 190 187 181 181 177 169 172 175 165
132 83 32 47 69 309 229 187 282 252 221 210 307 344 257 222 205 206 244 259 282 274 249 241 240 243 231 214 206 198 189 181 172 173 166 168 172 176 179 181 187 182 178 179 173 166 164 162 160
101 88 32 268 233 234 104 190 252 286 288 276 291 277 145 119 95 110 109 94 55 7 344 298 254 245 239 223 204 198 197 191 182 176 172 169 170 171 171 178 179 177 176 177 172 166 160 162 161
160 147 156 211 212 286 308 229 254 233 256 274 222 182 197 154 135 212 137 114 20 347 338 317 271 243 243 219 197 193 192 184 182 179 178 171 170 170 170 173 174 174 172 174 167 160 155 158 160
179 201 186 83 309 51 259 298 303 312 36 50 16 16 357 339 298 219 154 109 354 319 320 304 286 241 228 193 187 182 184 181 184 186 183 176 171 166 169 170 167 169 169 172 165 158 152 157 158
167 160 79 356 291 275 282 266 239 21 27 31 29 17 348 336 328 286 263 1 329 314 314 307 275 225 196 178 179 172 170 177 179 179 175 173 163 164 166 162 161 161 165 162 158 149 152 162 164
189 193 171 125 155 198 294 271 227 156 109 120 24 329 296 290 271 249 219 221 290 309 314 308 242 200 171 161 156 159 163 168 169 169 166 159 161 166 163 160 158 161 160 159 151 152 165 169 185
175 196 174 129 272 236 197 261 283 288 99 346 332 329 315 314 286 219 213 226 317 321 311 289 204 151 147 150 154 156 159 160 157 156 154 158 156 162 159 158 155 158 156 159 152 161 175 212 255